Tracking 23726 objects as of 16-Oct-2021
HD Live streaming from Space Station
objects crossing your sky now

USA 40 R/B DEB

Track USA 40 R/B DEB now!
10-day predictions


NORAD ID: 23362
Int'l Code: 1989-061AJ
Perigee: 554.4 km
Apogee: 6,064.6 km
Inclination: 56.9 °
Period: 158.0 minutes
Semi major axis: 9680 km
RCS: Unknown
Launch date: August 8, 1989
Source: United States (US)
Launch site: AIR FORCE EASTERN TEST RANGE (AFETR)

Note: This is SATELLITE DEBRIS
aabbcc
Your satellite tracking list
Your tracking list is empty




NASA's NSSDC Master Catalog

Two Line Element Set (TLE):
1 23362U 89061AJ  21284.02483923  .00006179  00000-0  57306-2 0  9994
2 23362  56.9121 255.2838 2846044   1.7762 359.0965  9.11501729 88543
Source of the keplerian elements: AFSPC